Weather History for Jonesboro, AR

Change the Weather History Date:

Tuesday, June 5, 2012

  Actual Average Record
Temperature  
Mean Temperature 76 °F 75 °F  
Max Temperature 84 °F 87 °F 102 °F (1899)
Min Temperature 67 °F 64 °F 41 °F (1897)
Degree Days  
Heating Degree Days 0 0  
Month to date heating degree days 0 0  
Since 1 June heating degree days 0 0  
Since 1 July heating degree days 2688 3652  
Cooling Degree Days 11 10  
Month to date cooling degree days 38 49  
Year to date cooling degree days 542 262  
Since 1 June cooling degree days 38 49  
Growing Degree Days 26 (Base 50)    
Moisture  
Dew Point 63 °F    
Average Humidity 65    
Maximum Humidity 93    
Minimum Humidity 37    
Precipitation  
Precipitation 0.00 in 0.10 in 2.93 in (1994)
Month to date precipitation 1.31 0.50  
Year to date precipitation 13.86 21.78  
Snow  
Snow 0.00 in - - ()
Month to date snowfall 0.0  
Since 1 June snowfall 0.0  
Since 1 July snowfall 5.5  
Snow Depth 0.00 in    
Sea Level Pressure  
Sea Level Pressure 29.80 in    
Wind  
Wind Speed 11 mph (NE)    
Max Wind Speed 21 mph    
Max Gust Speed 26 mph    
Visibility 10 miles    
Events      
T = Trace of Precipitation, MM = Missing Value Source: NWS Daily Summary

Daily Weather History Graph

Daily Weather History Graph

Search for Another Location

Airport:

Trip Planner

Search our weather history database for the weather conditions in past years. The results will help you decide how hot, cold, wet, or windy it might be!

Date:

Astronomy

Jun. 05, 2012 Rise Set
Actual Time 5:46 AM CDT 8:16 PM CDT
Civil Twilight 5:16 AM CDT 8:46 PM CDT
Nautical Twilight 4:39 AM CDT 9:22 PM CDT
Astronomical Twilight 3:59 AM CDT 10:03 PM CDT
Moon 9:42 PM CDT (6/5) 6:57 AM CDT (6/5)
Length of Visible Light 15h 29m
Length of Day
14h 29m
Full, 98% of the Moon is Illuminated
Jun 5
Full
Jun 11
Last Quarter
Jun 19
New
Jun 26
First Quarter
Jul 3
Full

Hourly Weather History & Observations

Time (CDT) Temp. Heat Index Dew Point Humidity Pressure Visibility Wind Dir Wind Speed Gust Speed Precip Events Conditions
12:53 AM 75.9 °F - 72.0 °F 87% 29.74 in 10.0 mi SW 5.8 mph - N/A   Partly Cloudy
1:53 AM 75.0 °F - 71.1 °F 87% 29.71 in 10.0 mi West 6.9 mph - N/A   Partly Cloudy
2:53 AM 73.9 °F - 71.1 °F 91% 29.73 in 9.0 mi NNW 3.5 mph - N/A   Clear
3:53 AM 73.9 °F - 70.0 °F 87% 29.74 in 10.0 mi NNE 11.5 mph - N/A   Partly Cloudy
4:00 AM 73.4 °F - 69.8 °F 88% 29.75 in 10.0 mi NNE 12.7 mph - N/A   Scattered Clouds
4:12 AM 73.4 °F - 69.8 °F 88% 29.76 in 10.0 mi NNE 9.2 mph - N/A   Mostly Cloudy
4:53 AM 73.0 °F - 69.1 °F 87% 29.76 in 7.0 mi NE 9.2 mph - N/A   Overcast
5:21 AM 71.6 °F - 68.0 °F 88% 29.77 in 8.0 mi NE 9.2 mph - N/A   Overcast
5:38 AM 71.6 °F - 68.0 °F 88% 29.78 in 10.0 mi NE 6.9 mph - N/A   Scattered Clouds
5:48 AM 71.6 °F - 66.2 °F 83% 29.78 in 10.0 mi NE 8.1 mph - N/A   Mostly Cloudy
5:53 AM 71.1 °F - 66.9 °F 87% 29.78 in 10.0 mi NE 9.2 mph - N/A   Mostly Cloudy
6:08 AM 71.6 °F - 66.2 °F 83% 29.79 in 10.0 mi NNE 8.1 mph - N/A   Overcast
6:53 AM 70.0 °F - 64.9 °F 84% 29.81 in 10.0 mi NNE 12.7 mph - N/A   Overcast
7:48 AM 69.8 °F - 62.6 °F 78% 29.83 in 10.0 mi NNE 15.0 mph 23.0 mph N/A   Overcast
7:53 AM 70.0 °F - 63.0 °F 78% 29.83 in 10.0 mi NE 13.8 mph 23.0 mph N/A   Overcast
8:53 AM 72.0 °F - 63.0 °F 73% 29.84 in 10.0 mi NNE 15.0 mph 21.9 mph N/A   Overcast
9:53 AM 75.0 °F - 64.0 °F 69% 29.84 in 10.0 mi NE 17.3 mph - N/A   Clear
10:53 AM 75.0 °F - 62.1 °F 64% 29.85 in 10.0 mi NE 12.7 mph 23.0 mph N/A   Mostly Cloudy
11:53 AM 79.0 °F - 62.1 °F 56% 29.85 in 10.0 mi ENE 16.1 mph 23.0 mph N/A   Clear
12:53 PM 80.1 °F 81.1 °F 61.0 °F 52% 29.84 in 10.0 mi NE 15.0 mph 21.9 mph N/A   Scattered Clouds
1:53 PM 82.0 °F 82.1 °F 59.0 °F 45% 29.83 in 10.0 mi NNE 16.1 mph 21.9 mph N/A   Clear
2:53 PM 82.9 °F 82.8 °F 59.0 °F 44% 29.81 in 10.0 mi NE 15.0 mph - N/A   Clear
3:53 PM 84.0 °F 83.0 °F 55.9 °F 38% 29.80 in 10.0 mi ENE 15.0 mph - N/A   Clear
4:53 PM 84.0 °F 82.9 °F 55.0 °F 37% 29.80 in 10.0 mi ENE 16.1 mph 20.7 mph N/A   Clear
5:53 PM 82.9 °F 81.9 °F 54.0 °F 37% 29.80 in 10.0 mi ENE 13.8 mph - N/A   Clear
6:53 PM 81.0 °F 80.4 °F 53.1 °F 38% 29.81 in 10.0 mi NE 11.5 mph - N/A   Clear
7:53 PM 77.0 °F - 57.0 °F 50% 29.83 in 10.0 mi NE 6.9 mph - N/A   Clear
8:53 PM 72.0 °F - 59.0 °F 64% 29.83 in 10.0 mi NE 6.9 mph - N/A   Clear
9:53 PM 72.0 °F - 59.0 °F 64% 29.86 in 10.0 mi NE 5.8 mph - N/A   Clear
10:53 PM 69.1 °F - 59.0 °F 70% 29.88 in 10.0 mi NE 6.9 mph - N/A   Clear
11:53 PM 66.9 °F - 59.0 °F 76% 29.89 in 10.0 mi NE 5.8 mph - N/A   Clear